User: anonymous   Login
Location: ?????????
(38.0736°N, 23.2119°E)
Time: 20:54:08
(UTC+00:00)
Language:

Cosmos 1980 Rocket - Orbit

View from above orbital plane
View from above orbital plane
View from above satellite
View from above satellite

Ground track
Ground track

The orbit data is extracted from the following two-line orbital elements,

1 19650U 88102B   24165.35892623  .00000192  00000-0  12155-3 0  9995
2 19650  71.0005  46.0323 0016373 258.0451 101.8837 14.15974223837092
Epoch (UTC): 13 June 2024 08:36:51
Eccentricity: 0.0016373
inclination: 71.0005°
perigee height: 827 km
apogee height: 851 km
right ascension of ascending node: 46.0323°
argument of perigee: 258.0451°
revolutions per day: 14.15974223
mean anomaly at epoch: 101.8837°
orbit number at epoch: 83709

The dashed part of the orbit path shows where the satellite is in the earth's shadow,  

DLR